CW2091 Weather Reports


time (UTC)temp
F
wind
direction
speed
knots
gust
knots
rain 1hr
in
rain 24hr
in
rain mn
in
humidity
%
barometer
mb
20260507093109 53 0 0.0 0.0 0.00 0.49 0.01 83 1012.7
20260507090109 53 315 0.9 4.3 0.00 0.49 0.01 84 1012.5
20260507083109 52 0 0.0 0.0 0.00 0.49 0.01 85 1012.4
20260507080109 52 0 0.0 0.0 0.00 0.49 0.01 86 1012.1
20260507073109 52 0 0.0 0.0 0.00 0.49 0.01 87 1011.8
20260507070109 51 315 0.0 4.3 0.00 0.49 0.01 88 1011.5
20260507063114 51 0 0.0 0.0 0.00 0.49 0.01 89 1011.3
20260507053113 51 0 0.0 0.0 0.00 0.49 0.01 90 1010.7
20260507050113 51 0 0.0 0.0 0.00 0.49 0.01 91 1010.3
20260507043113 50 0 0.0 0.0 0.00 0.50 0.01 91 1009.9
20260507040113 50 337 0.0 0.9 0.00 0.50 0.01 91 1009.7
20260507033113 50 0 0.0 0.0 0.00 0.50 0.01 92 1009.5
20260507030113 50 337 0.9 6.1 0.00 0.50 0.01 92 1009.1
20260507023113 51 0 0.0 0.0 0.00 0.50 0.01 92 1009.1
20260507020113 50 0 0.0 0.0 0.00 0.50 0.01 92 1008.9
20260507013113 51 0 0.0 0.0 0.00 0.50 0.01 92 1008.6
20260507010112 50 337 0.9 6.1 0.00 0.50 0.01 92 1008.4
20260507000113 51 0 0.0 0.0 0.00 0.50 0.01 91 1008.4
20260506233112 51 292 0.0 2.6 0.01 0.50 0.01 91 1008.2
20260506230113 51 270 0.9 4.3 0.01 0.50 0.01 91 1008.1
20260506223112 52 0 0.0 0.0 0.00 0.49 0.00 91 1007.9
20260506220112 53 270 0.0 1.7 0.02 0.49 0.00 91 1007.7
20260506213112 53 270 0.9 5.2 0.03 0.49 0.49 90 1007.3
20260506210112 53 0 0.0 0.0 0.03 0.47 0.47 90 1007.1
20260506203112 54 270 0.0 1.7 0.04 0.48 0.46 89 1006.9
20260506200112 55 0 0.0 0.0 0.07 0.46 0.44 89 1006.5
20260506193112 56 0 0.0 0.0 0.11 0.57 0.42 88 1006.2
20260506190111 56 0 0.0 0.0 0.14 0.53 0.37 88 1005.8
20260506183111 57 0 0.0 0.0 0.20 0.53 0.31 86 1005.5
20260506180111 58 0 0.0 0.0 0.16 0.45 0.23 85 1005.1
20260506170111 62 225 0.0 4.3 0.06 0.29 0.07 76 1004.5
20260506163111 64 157 1.7 8.7 0.00 0.23 0.01 68 1004.0
20260506160110 66 180 0.9 6.1 0.00 0.23 0.01 61 1003.8
20260506153111 67 202 0.0 4.3 0.00 0.23 0.01 57 1003.9
20260506150111 66 225 0.9 6.1 0.00 0.23 0.01 57 1003.8
20260506143110 66 202 2.6 7.0 0.00 0.23 0.01 58 1003.7
20260506133110 67 225 2.6 7.0 0.00 0.25 0.01 59 1003.8
20260506130111 68 225 2.6 7.8 0.00 0.25 0.01 56 1003.8
20260506123110 67 247 1.7 6.1 0.00 0.41 0.01 58 1003.8
20260506120110 67 225 2.6 8.7 0.00 0.41 0.01 59 1003.8
20260506110110 67 180 0.9 7.0 0.00 0.41 0.01 61 1004.2
20260506103109 64 225 1.7 7.8 0.00 0.41 0.01 65 1004.3
20260506100109 64 225 1.7 6.1 0.00 0.41 0.01 67 1004.5